Content
SEND FEEDBACK

Daily
Averages
Monthly
Summary
United States of America

PUT IN BAY, OHIO


Home > North America > United States > Ohio
Elevation: 561 feet     Latitude: 41 39N     Longitude: 082 48W

WEATHER
 
SELECT A DAY
Number of Records: 122,475;   Date Range: 12/10/00 - 7/11/14
 
SHARE

PRINT THIS DATA

[ ← Previous Day ]
WEATHER ALMANAC - OCTOBER 8, 2013
[ Next Day → ]
[ °C ]   °F
We're sorry. There is no daily almanac available for Put In Bay, Ohio on October 8, 2013.
WEATHER BY HOUR - OCTOBER 8, 2013
[ °C ]   °F
Local TimeTemperatureDewpointHumidityBarometerVisibilityWind DirectionWind SpeedGust SpeedPrecipitationEventsConditions
1:00 AM50.4 °F44.1 °F79 %30.13 inWNW (300°)3.5 mph
2:00 AM47.0 °F43.0 °F82 %30.14 inWest (280°)2.3 mph
2:00 AM46.8 °F43.3 °F88 %30.14 inWest (280°)2.3 mph
3:00 AM46.0 °F43.3 °F90 %30.15 inWSW (250°)3.5 mph
4:00 AM46.6 °F44.1 °F91 %30.16 inWest (280°)3.5 mph
5:00 AM46.4 °F43.9 °F91 %30.18 inWNW (290°)2.3 mph
6:00 AM44.8 °F42.6 °F92 %30.19 inCalm
7:00 AM42.4 °F40.6 °F93 %30.22 inCalm
8:00 AM46.0 °F44.0 °F91 %30.25 inNW (310°)2.3 mph
8:00 AM45.7 °F44.2 °F95 %30.25 inNW (310°)2.3 mph
9:00 AM51.8 °F48.0 °F87 %30.27 inWNW (290°)2.3 mph
10:00 AM56.8 °F49.1 °F75 %30.28 inWest (270°)3.5 mph
11:00 AM60.1 °F48.4 °F65 %30.28 inWSW (250°)2.3 mph
12:00 PM61.9 °F47.1 °F58 %30.28 inSouth (190°)6.9 mph
1:00 PM62.8 °F46.6 °F55 %30.28 inSouth (180°)5.8 mph
2:00 PM62.0 °F47.0 °F46 %30.27 inSouth (170°)6.9 mph
2:00 PM62.4 °F46.6 °F56 %30.27 inSouth (170°)6.9 mph
3:00 PM62.4 °F44.6 °F52 %30.26 inSSE (160°)6.9 mph
4:00 PM62.4 °F45.0 °F53 %30.26 inSSE (150°)4.6 mph
5:00 PM62.1 °F46.0 °F56 %30.25 inSouth (170°)6.9 mph
6:00 PM61.7 °F44.6 °F53 %30.25 inESE (120°)2.3 mph
7:00 PM55.8 °F45.9 °F69 %30.25 inCalm
8:00 PM53.0 °F45.0 °F65 %30.26 inEast (80°)1.2 mph
8:00 PM53.4 °F44.8 °F73 %30.26 inEast (80°)1.2 mph
9:00 PM52.7 °F43.7 °F71 %30.27 inEast (80°)1.2 mph
10:00 PM51.1 °F44.8 °F79 %30.27 inENE (70°)1.2 mph
11:00 PM51.4 °F45.1 °F79 %30.27 inENE (70°)1.2 mph
Hourly data recorded from CXHA, located miles away from Put In Bay, Ohio







STORIES FROM OUR PARTNERS